This demonstration page uses our WeatherBlox Daily Observations layout. Learn more.

Left ArrowRight Arrow

41.55636, -103.73856

Hourly Observations for September 29, 2016

Temp ( °F °C ) Dew Point ( °F °C ) Humidity (%) Winds ( mph kmh ) Pressure ( in mb ) Visibility ( mi km ) Precip ( " mm )
12:53 am 00:53 Clear 54 12.2 41 5 62 62 ESE 12 19 30.26 1025 10 16 0.00 0.00
1:53 am 01:53 Clear 51 10.6 41 5 69 69 ESE 9 15 30.26 1025 10 16 0.00 0.00
2:53 am 02:53 Clear 50 10 39 3.9 66 66 E 9 15 30.25 1024 10 16 0.00 0.00
3:53 am 03:53 Clear 48 8.9 39 3.9 71 71 E 10 17 30.25 1024 10 16 0.00 0.00
4:53 am 04:53 Clear 47 8.3 38 3.3 71 71 ESE 8 13 30.25 1025 10 16 0.00 0.00
5:53 am 05:53 Clear 46 7.8 37 2.8 71 71 ESE 10 17 30.25 1024 10 16 0.00 0.00
6:53 am 06:53 Sunny 45 7.2 37 2.8 74 74 ESE 8 13 30.29 1026 10 16 0.00 0.00
7:53 am 07:53 Sunny 48 8.9 38 3.3 68 68 ESE 13 20 30.30 1026 10 16 0.00 0.00
8:53 am 08:53 Sunny 54 12.2 40 4.4 59 59 ESE 14 22 30.29 1026 10 16 0.00 0.00
9:53 am 09:53 Sunny 60 15.6 43 6.1 53 53 ESE 12 19 30.26 1025 10 16 0.00 0.00
10:53 am 10:53 Sunny 66 18.9 45 7.2 47 47 ESE 14 22 30.24 1024 10 16 0.00 0.00
11:53 am 11:53 Sunny 73 22.8 47 8.3 40 40 SE 14 22 30.22 1023 10 16 0.00 0.00
12:53 pm 12:53 Sunny 78 25.6 45 7.2 31 31 SSE 18 30 30.17 1022 10 16 0.00 0.00
1:53 pm 13:53 Sunny 80 26.7 45 7.2 29 29 SSE 18 30 30.14 1021 10 16 0.00 0.00
2:53 pm 14:53 Sunny 82 27.8 44 6.7 26 26 SE 17 28 30.12 1020 10 16 0.00 0.00
3:53 pm 15:53 Sunny 82 27.8 42 5.6 24 24 SSE 14 22 30.11 1020 10 16 0.00 0.00
4:53 pm 16:53 Sunny 81 27.2 42 5.6 25 25 SSE 14 22 30.11 1020 10 16 0.00 0.00
5:53 pm 17:53 Sunny 75 23.9 45 7.2 34 34 ESE 17 28 30.12 1020 10 16 0.00 0.00
6:53 pm 18:53 Clear 69 20.6 44 6.7 41 41 ESE 16 26 30.14 1021 10 16 0.00 0.00
7:53 pm 19:53 Clear 67 19.4 44 6.7 44 44 SE 17 28 30.15 1021 10 16 0.00 0.00
8:53 pm 20:53 Clear 63 17.2 43 6.1 48 48 ESE 18 30 30.16 1021 10 16 0.00 0.00
9:53 pm 21:53 Clear 61 16.1 42 5.6 50 50 ESE 17 28 30.16 1021 10 16 0.00 0.00
10:53 pm 22:53 Clear 57 14 43 6 59 59 ESE 15 24 30.12 1020 10 16 0.00 0.00
11:53 pm 23:53 Clear 56 13.3 41 5 57 57 ESE 10 17 30.14 1021 10 16 0.00 0.00

Powered by AerisWeather